Location: Dos Palmas
(32.4468°N, 116.8732°W)
Time: 02:23:17
(UTC+00:00)

NOSS 3-1 (A) - Pass Details

Date: 20 June 2021
Orbit: 729 x 1483 km, 63.4° (Epoch: 23 July)

Event Time Altitude Azimuth Distance (km) Brightness Sun altitude
Exits shadow 07:52:19 40° 24° (NNE) 1,191 4.2 -34.1°
Drops below altitude 10° 07:56:01 10° 29° (NNE) 2,541 6.3 -34.1°
Sets 07:58:43 0° 30° (NNE) 3,590 7.3 -34.1°
